"Timestamp","TZ","WindDir_Mean (deg)","WindSpd_Mean (km/h)","WindSpd_Min (km/h)","WindSpd_Max (km/h)","Temp_Mean (deg)","RH_Mean (%)","MSLP_Mean (hPa)","Rain_Acc (mm)","Rain_Intensity (mm/h)","Hail_Acc (hits/cm2)","Hail_Intensity (hits/cm2hr)","Solar_Mean (W/m2)"
2022/12/14 00:00:00.005,n,163,4.32,2.16,7.2,22.4,70.1,1009.82,0,0,0,0,0.021744
2022/12/14 00:01:00.002,n,135,5.4,4.32,6.84,22.4,70.1,1009.82,0,0,0,0,0.028687
2022/12/14 00:02:00.001,n,130,5.4,5.04,5.76,22.4,70.2,1009.72,0,0,0,0,0.026093
2022/12/14 00:03:00.002,n,123,6.48,4.68,8.28,22.4,70,1009.72,0,0,0,0,0.02346
2022/12/14 00:04:00.001,n,136,7.2,6.12,7.92,22.4,69.9,1009.62,0,0,0,0,0.02697
2022/12/14 00:05:00.001,n,140,5.04,4.68,5.4,22.4,70.1,1009.62,0,0,0,0,0.026093
2022/12/14 00:06:00.004,n,156,3.24,2.52,3.96,22.4,70.1,1009.62,0,0,0,0,0.02346
2022/12/14 00:07:00.006,n,137,6.48,6.12,7.2,22.4,70.1,1009.62,0,0,0,0,0.02346
2022/12/14 00:08:00.009,n,147,7.92,7.2,8.28,22.4,69.9,1009.62,0,0,0,0,0.026093
2022/12/14 00:09:00.010,n,144,5.76,5.4,6.12,22.4,70,1009.62,0,0,0,0,0.022621
2022/12/14 00:10:00.001,n,118,2.88,2.52,3.24,22.4,70.1,1009.62,0,0,0,0,0.024338
2022/12/14 00:11:00.001,n,122,4.68,3.96,5.04,22.4,70.1,1009.62,0,0,0,0,0.020866
2022/12/14 00:12:00.001,n,127,5.76,5.76,6.12,22.4,70.1,1009.62,0,0,0,0,0.022621
2022/12/14 00:13:00.003,n,131,3.96,2.88,4.32,22.4,70.1,1009.62,0,0,0,0,0.021744
2022/12/14 00:14:00.004,n,87,2.52,2.52,2.88,22.4,70.1,1009.62,0,0,0,0,0.022621
2022/12/14 00:15:00.006,n,103,2.16,1.08,3.6,22.4,70.2,1009.62,0,0,0,0,0.021744
2022/12/14 00:16:00.009,n,130,5.4,5.04,6.12,22.4,70.1,1009.52,0,0,0,0,0.020027
2022/12/14 00:17:00.015,n,130,4.68,4.68,5.04,22.4,69.9,1009.52,0,0,0,0,0.020027
2022/12/14 00:18:00.003,n,110,2.16,1.44,2.88,22.4,70,1009.52,0,0,0,0,0.02346
2022/12/14 00:19:00.001,n,185,3.24,2.88,3.24,22.4,70.1,1009.52,0,0,0,0,0.02346
2022/12/14 00:20:00.001,n,133,2.52,1.8,3.6,22.4,70.2,1009.52,0,0,0,0,0.022621
2022/12/14 00:21:00.001,n,152,3.96,3.96,4.32,22.5,70.2,1009.52,0,0,0,0,0.021744
2022/12/14 00:22:00.002,n,138,2.88,2.52,2.88,22.4,70.2,1009.52,0,0,0,0,0.01915
2022/12/14 00:23:00.005,n,164,3.96,3.6,4.32,22.4,70.2,1009.52,0,0,0,0,0.022621
2022/12/14 00:24:00.007,n,162,4.32,3.96,4.68,22.4,70.2,1009.52,0,0,0,0,0.018272
2022/12/14 00:25:00.012,n,161,2.52,1.8,3.24,22.4,70.2,1009.52,0,0,0,0,0.02346
2022/12/14 00:26:00.013,n,180,5.04,3.6,8.64,22.4,70.2,1009.52,0,0,0,0,0.021744
2022/12/14 00:27:00.016,n,174,5.04,4.32,9.72,22.4,70.2,1009.42,0,0,0,0,0.021744
2022/12/14 00:28:00.002,n,176,9,5.4,10.8,22.4,70.1,1009.42,0,0,0,0,0.024338
2022/12/14 00:29:00.002,n,163,6.48,4.68,9.72,22.4,70.2,1009.42,0,0,0,0,0.01915
2022/12/14 00:30:00.001,n,139,3.96,2.16,4.68,22.4,70.3,1009.32,0,0,0,0,0.01915
2022/12/14 00:31:00.002,n,166,4.68,4.32,9.72,22.4,70.1,1009.32,0,0,0,0,0.022621
2022/12/14 00:32:00.005,n,162,3.6,3.6,4.32,22.4,70.3,1009.32,0,0,0,0,0.024338
2022/12/14 00:33:00.001,n,150,4.32,4.32,4.68,22.4,70.4,1009.32,0,0,0,0,0.021744
2022/12/14 00:34:00.004,n,142,2.88,2.52,3.6,22.3,70.5,1009.32,0,0,0,0,0.022621
2022/12/14 00:35:00.006,n,170,3.96,3.24,7.92,22.3,70.6,1009.42,0,0,0,0,0.022621
2022/12/14 00:36:00.010,n,203,2.16,1.8,6.12,22.4,70.6,1009.42,0,0,0,0,0.020866
2022/12/14 00:37:00.001,n,179,5.4,2.88,7.56,22.4,70.7,1009.32,0,0,0,0,0.02346
2022/12/14 00:38:00.002,n,218,3.24,1.8,6.12,22.4,70.6,1009.32,0,0,0,0,0.018272
2022/12/14 00:39:00.004,n,200,3.6,2.52,6.84,22.4,70.5,1009.32,0,0,0,0,0.022621
2022/12/14 00:40:00.002,n,193,5.76,3.96,8.28,22.4,70.6,1009.22,0,0,0,0,0.01915
2022/12/14 00:41:00.001,n,179,8.64,6.12,11.88,22.4,70.4,1009.12,0,0,0,0,0.021744
2022/12/14 00:42:00.004,n,202,5.76,5.04,6.12,22.4,70.3,1009.12,0,0,0,0,0.01915
2022/12/14 00:43:00.007,n,180,7.92,5.76,11.52,22.4,70.3,1009.02,0,0,0,0,0.024376
2022/12/14 00:44:00.008,n,171,7.2,4.32,10.08,22.3,70.3,1009.02,0,0,0,0,0.025253
2022/12/14 00:45:00.012,n,185,5.76,3.24,9.36,22.3,70.4,1009.02,0,0,0,0,0.028763
2022/12/14 00:46:00.012,n,168,6.84,5.04,10.440002,22.3,70.4,1009.02,0,0,0,0,0.027885
2022/12/14 00:47:00.002,n,175,3.96,2.52,7.92,22.3,70.4,1009.02,0,0,0,0,0.028763
2022/12/14 00:48:00.002,n,172,5.04,2.88,8.64,22.3,70.5,1009.12,0,0,0,0,0.02697
2022/12/14 00:49:00.007,n,165,3.24,2.88,3.6,22.3,70.4,1009.12,0,0,0,0,0.029602
2022/12/14 00:50:00.002,n,161,2.16,0.72,6.84,22.3,70.4,1009.12,0,0,0,0,0.034828
2022/12/14 00:51:00.002,n,125,0.72,0.36,0.72,22.3,70.4,1009.12,0,0,0,0,0.035706
2022/12/14 00:52:00.012,n,200,3.6,2.52,7.56,22.3,70.1,1009.12,0,0,0,0,0.039177
2022/12/14 00:53:00.011,n,146,3.6,3.24,3.96,22.3,70.1,1009.12,0,0,0,0,0.036545
2022/12/14 00:54:00.007,n,149,5.76,5.76,6.12,22.3,70.3,1009.12,0,0,0,0,0.041771
2022/12/14 00:55:00.002,n,168,6.12,3.96,11.16,22.3,70.1,1009.02,0,0,0,0,0.043526
2022/12/14 00:56:00.001,n,166,5.76,3.96,6.48,22.3,69.9,1009.02,0,0,0,0,0.043526
2022/12/14 00:57:00.003,n,169,7.56,4.32,10.8,22.3,70.2,1009.02,0,0,0,0,0.027809
2022/12/14 00:58:00.008,n,115,2.88,2.52,2.88,22.3,70.2,1009.02,0,0,0,0,0.032196
2022/12/14 00:59:00.006,n,136,2.52,1.08,4.32,22.3,70.2,1009.02,0,0,0,0,0.033035
2022/12/14 01:00:00.009,n,192,4.32,3.96,4.68,22.3,70.3,1009.02,0,0,0,0,0.040016
2022/12/14 01:01:00.023,n,186,4.68,2.52,7.56,22.3,70.4,1009.02,0,0,0,0,0.040016
2022/12/14 01:02:00.006,n,183,3.6,2.16,5.04,22.3,70.4,1009.02,0,0,0,0,0.04261
2022/12/14 01:03:00.019,n,193,6.84,4.68,8.64,22.3,70.2,1009.02,0,0,0,0,0.040855
2022/12/14 01:04:00.002,n,208,5.76,4.68,8.64,22.3,70.2,1009.02,0,0,0,0,0.04261
2022/12/14 01:05:00.003,n,166,3.6,3.24,4.68,22.3,69.9,1009.02,0,0,0,0,0.043488
2022/12/14 01:06:00.007,n,184,5.76,2.88,8.28,22.3,70,1009.02,0,0,0,0,0.047798
2022/12/14 01:07:00.007,n,194,3.24,0.72,6.12,22.3,70.2,1009.02,0,0,0,0,0.048676
2022/12/14 01:08:00.008,n,98,1.8,0.36,5.4,22.4,70,1008.92,0,0,0,0,0.048676
2022/12/14 01:09:00.008,n,149,1.44,0.72,1.8,22.4,70,1008.92,0,0,0,0,0.024338
2022/12/14 01:10:00.009,n,162,2.52,2.16,3.24,22.4,70,1008.92,0,0,0,0,0.030441
2022/12/14 01:11:00.011,n,158,4.32,4.32,4.32,22.4,69.6,1008.92,0,0,0,0,0.028687
2022/12/14 01:12:00.010,n,170,3.96,3.6,5.04,22.4,69.9,1008.92,0,0,0,0,0.03479
2022/12/14 01:13:00.002,n,158,4.32,2.88,8.28,22.4,69.9,1008.92,0,0,0,0,0.033913
2022/12/14 01:14:00.003,n,141,6.12,5.4,6.84,22.3,70,1008.92,0,0,0,0,0.032158
2022/12/14 01:15:00.002,n,151,7.56,6.48,8.28,22.3,70,1008.82,0,0,0,0,0.036507
2022/12/14 01:16:00.002,n,164,5.4,5.04,5.76,22.3,70,1008.72,0,0,0,0,0.036507
2022/12/14 01:17:00.002,n,156,6.12,5.76,7.2,22.3,70.3,1008.72,0,0,0,0,0.035629
2022/12/14 01:18:00.005,n,145,4.68,4.32,5.04,22.3,70.5,1008.72,0,0,0,0,0.036507
2022/12/14 01:19:00.006,n,187,4.32,3.24,5.4,22.3,70.5,1008.72,0,0,0,0,0.041733
2022/12/14 01:20:00.005,n,148,2.52,2.16,2.52,22.3,70.6,1008.72,0,0,0,0,0.038223
2022/12/14 01:21:00.009,n,152,2.16,1.8,2.52,22.3,70.6,1008.72,0,0,0,0,0.040855
2022/12/14 01:22:00.001,n,214,3.96,3.6,4.32,22.3,70.6,1008.72,0,0,0,0,0.041733
2022/12/14 01:23:00.002,n,226,2.52,2.16,3.24,22.3,70.5,1008.72,0,0,0,0,0.044327
2022/12/14 01:24:00.001,n,212,2.52,2.52,2.52,22.2,70.3,1008.72,0,0,0,0,0.040855
2022/12/14 01:25:00.001,n,123,2.16,2.16,2.52,22.2,70.5,1008.62,0,0,0,0,0.045204
2022/12/14 01:26:00.007,n,120,2.88,2.52,3.24,22.2,70.6,1008.62,0,0,0,0,0.04261
2022/12/14 01:27:00.010,n,99,2.88,2.52,2.88,22.2,70.5,1008.62,0,0,0,0,0.04261
2022/12/14 01:28:00.018,n,152,4.68,3.6,9,22.2,70.3,1008.52,0,0,0,0,0.048676
2022/12/14 01:29:00.006,n,144,3.6,3.24,3.6,22.2,70.4,1008.52,0,0,0,0,0.046082
2022/12/14 01:30:00.009,n,154,3.96,3.6,4.32,22.2,70.5,1008.52,0,0,0,0,0.045204
2022/12/14 01:31:00.004,n,164,4.32,3.6,8.64,22.2,70.4,1008.52,0,0,0,0,0.043449
2022/12/14 01:32:00.001,n,186,7.2,4.68,9.36,22.2,70.5,1008.62,0,0,0,0,0.04261
2022/12/14 01:33:00.002,n,197,5.76,3.6,7.92,22.2,70.5,1008.62,0,0,0,0,0.045204
2022/12/14 01:34:00.009,n,187,5.76,3.96,8.28,22.2,70.6,1008.62,0,0,0,0,0.046959
2022/12/14 01:35:00.005,n,186,3.96,3.24,5.76,22.2,70.7,1008.62,0,0,0,0,0.044327
2022/12/14 01:36:00.012,n,173,8.64,5.76,11.88,22.2,70.3,1008.62,0,0,0,0,0.044327
2022/12/14 01:37:00.001,n,195,6.48,4.68,9.36,22.2,70.4,1008.62,0,0,0,0,0.024338
2022/12/14 01:38:00.002,n,172,5.76,3.96,9.72,22.1,70.3,1008.62,0,0,0,0,0.026932
2022/12/14 01:39:00.010,n,153,3.24,1.44,7.56,22.1,70.6,1008.52,0,0,0,0,0.028687
2022/12/14 01:40:00.001,n,156,7.2,5.4,11.52,22.1,70.8,1008.52,0,0,0,0,0.030403
2022/12/14 01:41:00.001,n,167,6.48,6.12,11.88,22.1,70.8,1008.52,0,0,0,0,0.031281
2022/12/14 01:42:00.001,n,155,5.76,5.4,6.12,22.1,70.9,1008.52,0,0,0,0,0.032997
2022/12/14 01:43:00.005,n,173,5.76,3.96,7.56,22.1,71.1,1008.52,0,0,0,0,0.031281
2022/12/14 01:44:00.001,n,185,8.28,5.76,10.8,22.1,71.1,1008.52,0,0,0,0,0.032158
2022/12/14 01:45:00.001,n,167,5.04,3.96,6.48,22.1,71.2,1008.62,0,0,0,0,0.032997
2022/12/14 01:46:00.007,n,158,3.24,2.52,3.96,22.1,71.3,1008.62,0,0,0,0,0.031281
2022/12/14 01:47:00.005,n,181,3.6,2.88,4.32,22.1,71.3,1008.62,0,0,0,0,0.027809
2022/12/14 01:48:00.014,n,230,3.6,2.16,4.32,22.1,71.3,1008.62,0,0,0,0,0.033913
2022/12/14 01:49:00.009,n,204,2.52,1.8,5.4,22.1,71.4,1008.62,0,0,0,0,0.032997
2022/12/14 01:50:00.001,n,142,1.44,0.72,2.52,22.1,71.4,1008.62,0,0,0,0,0.032158
2022/12/14 01:51:00.002,n,131,2.16,1.08,3.24,22.1,71.4,1008.52,0,0,0,0,0.032158
2022/12/14 01:52:00.001,n,136,3.6,2.88,3.96,22.1,71.5,1008.42,0,0,0,0,0.03479
2022/12/14 01:53:00.001,n,197,3.24,2.52,6.84,22.1,71.6,1008.32,0,0,0,0,0.033913
2022/12/14 01:54:00.001,n,181,6.12,3.96,9,22.1,71.7,1008.22,0,0,0,0,0.036507
2022/12/14 01:55:00.003,n,145,2.88,2.52,3.24,22.1,71.7,1008.22,0,0,0,0,0.032158
2022/12/14 01:56:00.013,n,133,3.24,2.88,3.96,22.1,71.7,1008.22,0,0,0,0,0.032997
2022/12/14 01:57:00.026,n,148,3.24,2.52,3.96,22.1,71.8,1008.12,0,0,0,0,0.033913
2022/12/14 01:58:00.002,n,166,4.32,2.88,5.4,22.1,72,1008.12,0,0,0,0,0.03479
2022/12/14 01:59:00.001,n,189,4.32,2.88,7.92,22,72.1,1008.22,0,0,0,0,0.036507
2022/12/14 02:00:00.002,n,144,5.4,4.68,6.12,22,72.2,1008.22,0,0,0,0,0.038223
2022/12/14 02:01:00.010,n,172,5.4,3.24,9,22,72.4,1008.22,0,0,0,0,0.033913
2022/12/14 02:02:00.002,n,188,3.96,3.24,7.92,22,72.5,1008.32,0,0,0,0,0.03479
2022/12/14 02:03:00.006,n,197,6.48,4.68,8.64,22,72.5,1008.32,0,0,0,0,0.038223
2022/12/14 02:04:00.005,n,280,3.6,1.08,6.12,22,72.8,1008.32,0,0,0,0,0.035629
2022/12/14 02:05:00.013,n,176,3.96,2.16,7.92,22,72.7,1008.32,0,0,0,0,0.03479
2022/12/14 02:06:00.003,n,194,2.16,1.8,2.16,22,72.7,1008.32,0,0,0,0,0.037384
2022/12/14 02:07:00.002,n,128,2.16,1.44,3.24,22,72.9,1008.32,0,0,0,0,0.039139
2022/12/14 02:08:00.001,n,152,3.96,2.52,5.4,22,72.8,1008.32,0,0,0,0,0.03479
2022/12/14 02:09:00.001,n,168,7.56,5.76,11.16,22,72.8,1008.32,0,0,0,0,0.037384
2022/12/14 02:10:00.001,n,186,6.84,4.32,9.36,21.9,72.9,1008.32,0,0,0,0,0.038223
2022/12/14 02:11:00.002,n,171,10.440002,6.12,12.24,21.9,72.7,1008.32,0,0,0,0,0.03479
2022/12/14 02:12:00.004,n,245,1.8,0.72,3.6,21.9,72.8,1008.22,0,0,0,0,0.036507
2022/12/14 02:13:00.008,n,196,8.28,3.6,9.72,21.9,72.9,1008.22,0,0,0,0,0.036507
2022/12/14 02:14:00.005,n,182,8.64,4.68,10.08,21.9,72.9,1008.22,0,0,0,0,0.036507
2022/12/14 02:15:00.019,n,176,10.8,6.12,12.6,21.9,72.9,1008.22,0,0,0,0,0.03479
2022/12/14 02:16:00.002,n,184,6.48,3.96,10.440002,21.9,72.9,1008.32,0,0,0,0,0.038223
2022/12/14 02:17:00.002,n,175,6.48,4.32,8.28,21.9,73,1008.32,0,0,0,0,0.035629
2022/12/14 02:18:00.004,n,197,3.96,2.88,5.04,21.9,73.1,1008.22,0,0,0,0,0.033913
2022/12/14 02:19:00.001,n,210,4.32,2.52,5.76,21.9,73.3,1008.22,0,0,0,0,0.03479
2022/12/14 02:20:00.004,n,223,3.96,2.88,5.04,21.9,73.4,1008.22,0,0,0,0,0.03479
2022/12/14 02:21:00.009,n,186,3.6,1.44,6.12,21.9,73.6,1008.22,0,0,0,0,0.036507
2022/12/14 02:22:00.019,n,162,6.48,3.96,11.52,21.9,73.3,1008.12,0,0,0,0,0.035629
2022/12/14 02:23:00.025,n,179,11.52,9.36,16.919998,21.9,73,1008.12,0,0,0,0,0.032997
2022/12/14 02:24:00.019,n,177,11.52,7.56,12.6,21.8,73.2,1008.12,0,0,0,0,0.036507
2022/12/14 02:25:00.004,n,188,10.440002,7.92,12.6,21.8,73.2,1008.12,0,0,0,0,0.033913
2022/12/14 02:26:00.001,n,158,8.64,7.2,14.04,21.8,73.3,1008.12,0,0,0,0,0.035629
2022/12/14 02:27:00.001,n,194,7.92,6.12,12.24,21.7,73.1,1008.22,0,0,0,0,0.035629
2022/12/14 02:28:00.003,n,180,11.88,8.28,18,21.7,73,1008.12,0,0,0,0,0.032997
2022/12/14 02:29:00.002,n,176,9,6.12,12.96,21.7,73.1,1008.12,0,0,0,0,0.03479
2022/12/14 02:30:00.004,n,180,10.8,6.48,12.6,21.7,73.2,1008.02,0,0,0,0,0.035629
2022/12/14 02:31:00.007,n,173,14.04,10.08,17.64,21.7,73.1,1008.02,0,0,0,0,0.032158
2022/12/14 02:32:00.014,n,179,9.36,7.2,14.04,21.6,73.2,1008.02,0,0,0,0,0.03479
2022/12/14 02:33:00.022,n,154,8.28,6.48,10.8,21.6,73.2,1008.02,0,0,0,0,0.032997
2022/12/14 02:34:00.002,n,180,5.76,3.6,9.72,21.6,73.3,1008.02,0,0,0,0,0.033913
2022/12/14 02:35:00.002,n,215,3.96,3.24,4.68,21.6,73.3,1008.02,0,0,0,0,0.037384
2022/12/14 02:36:00.002,n,151,6.12,3.24,7.92,21.6,73.4,1008.02,0,0,0,0,0.031281
2022/12/14 02:37:00.001,n,154,4.32,2.88,7.92,21.6,73.6,1008.02,0,0,0,0,0.03479
2022/12/14 02:38:00.001,n,179,5.76,4.32,10.8,21.6,73.5,1007.92,0,0,0,0,0.029564
2022/12/14 02:39:00.005,n,182,4.68,2.52,6.48,21.6,73.6,1007.92,0,0,0,0,0.029564
2022/12/14 02:40:00.008,n,146,4.68,4.32,5.04,21.6,73.7,1007.92,0,0,0,0,0.026932
2022/12/14 02:41:00.015,n,167,9.72,5.4,11.16,21.5,73.8,1007.92,0,0,0,0,0.030403
2022/12/14 02:42:00.021,n,180,15.12,11.88,17.64,21.5,73.7,1007.92,0,0,0,0,0.029564
2022/12/14 02:43:00.001,n,196,9,7.92,12.24,21.4,73.9,1007.92,0,0,0,0,0.030403
2022/12/14 02:44:00.001,n,191,10.8,7.92,14.04,21.4,74,1007.92,0,0,0,0,0.029564
2022/12/14 02:45:00.001,n,175,10.8,6.48,12.24,21.4,74.1,1007.92,0,0,0,0,0.027809
2022/12/14 02:46:00.002,n,193,11.88,8.64,16.2,21.4,74.2,1007.92,0,0,0,0,0.031281
2022/12/14 02:47:00.001,n,207,6.48,5.4,8.64,21.3,74.3,1007.92,0,0,0,0,0.027809
2022/12/14 02:48:00.001,n,191,7.56,6.12,9,21.3,74.4,1007.92,0,0,0,0,0.028687
2022/12/14 02:49:00.011,n,177,8.28,5.4,10.8,21.3,74.6,1007.92,0,0,0,0,0.028687
2022/12/14 02:50:00.007,n,174,8.64,4.68,12.24,21.3,74.6,1007.92,0,0,0,0,0.030403
2022/12/14 02:51:00.010,n,176,6.12,4.32,9.72,21.3,74.7,1008.02,0,0,0,0,0.026932
2022/12/14 02:52:00.002,n,215,3.96,2.88,7.2,21.3,74.9,1008.02,0,0,0,0,0.025215
2022/12/14 02:53:00.001,n,193,2.88,2.16,3.96,21.3,75.1,1008.02,0,0,0,0,0.024338
2022/12/14 02:54:00.001,n,204,2.52,1.8,3.6,21.3,75.1,1008.02,0,0,0,0,0.026054
2022/12/14 02:55:00.007,n,180,5.4,3.24,8.28,21.3,75.5,1008.12,0,0,0,0,0.02346
2022/12/14 02:56:00.006,n,236,2.52,2.16,2.88,21.3,75.2,1008.12,0,0,0,0,0.02346
2022/12/14 02:57:00.001,n,222,3.6,2.16,4.68,21.3,75.2,1008.12,0,0,0,0,0.02346
2022/12/14 02:58:00.003,n,271,5.4,2.88,6.84,21.3,75.4,1008.02,0,0,0,0,0.02346
2022/12/14 02:59:00.021,n,180,3.6,2.52,6.12,21.3,75.2,1008.02,0,0,0,0,0.019112
2022/12/14 03:00:00.006,n,203,5.4,4.68,7.56,21.3,74.9,1008.02,0,0,0,0,0.019112
2022/12/14 03:01:00.005,n,162,3.96,3.24,5.4,21.2,75.1,1008.02,0,0,0,0,0.019112
2022/12/14 03:02:00.005,n,204,3.6,3.24,5.4,21.2,75,1008.02,0,0,0,0,0.020828
2022/12/14 03:03:00.005,n,115,1.44,0.72,2.52,21.2,75.2,1008.02,0,0,0,0,0.02346
2022/12/14 03:04:00.009,n,173,4.32,1.8,7.56,21.2,75.1,1008.02,0,0,0,0,0.019989
2022/12/14 03:05:00.001,n,188,7.56,5.4,10.8,21.2,74.8,1008.02,0,0,0,0,0.026093
2022/12/14 03:06:00.002,n,171,5.4,3.6,8.28,21.1,74.8,1007.92,0,0,0,0,0.031319
2022/12/14 03:07:00.011,n,166,15.12,9.36,16.56,21.1,74.6,1007.92,0,0,0,0,0.030441
2022/12/14 03:08:00.005,n,183,4.32,3.6,5.04,21.1,74.7,1007.92,0,0,0,0,0.030441
2022/12/14 03:09:00.021,n,208,6.84,5.76,7.92,21.1,74.7,1007.92,0,0,0,0,0.030441
2022/12/14 03:10:00.001,n,179,9.36,5.76,12.6,21.1,74.6,1007.92,0,0,0,0,0.030441
2022/12/14 03:11:00.002,n,241,6.12,5.76,6.48,21.1,74.5,1008.02,0,0,0,0,0.02697
2022/12/14 03:12:00.005,n,219,3.6,0.72,6.84,21.1,75.2,1008.02,0,0,0,0,0.029602
2022/12/14 03:13:00.001,n,223,7.2,6.12,9,21.1,74.6,1007.92,0,0,0,0,0.032196
2022/12/14 03:14:00.003,n,177,7.2,4.32,10.440002,21.1,74.5,1007.92,0,0,0,0,0.030441
2022/12/14 03:15:00.002,n,224,2.16,1.08,4.68,21.1,74.4,1007.92,0,0,0,0,0.027809
2022/12/14 03:16:00.006,n,167,3.6,2.88,7.92,21.1,74.4,1007.92,0,0,0,0,0.026093
2022/12/14 03:17:00.016,n,221,0.72,0,1.44,21.1,74.4,1008.02,0,0,0,0,0.029602
2022/12/14 03:18:00.002,n,273,3.96,3.24,4.32,21.1,74.6,1008.12,0,0,0,0,0.026093
2022/12/14 03:19:00.002,n,159,2.16,1.08,3.96,21.1,74.7,1008.22,0,0,0,0,0.025215
2022/12/14 03:20:00.010,n,253,7.2,3.96,8.28,21.1,75,1008.22,0,0,0,0,0.02697
2022/12/14 03:21:00.472,n,222,5.4,4.68,6.12,21.1,75.3,1008.32,0,0,0,0,0.026093
2022/12/14 03:22:00.004,n,251,6.48,6.12,6.84,21.2,75.5,1008.32,0,0,0,0,0.026093
2022/12/14 03:23:00.001,n,252,5.04,2.52,6.84,21.1,75.4,1008.32,0,0,0,0,0.022621
2022/12/14 03:24:00.004,n,216,4.32,3.24,5.04,21.1,75.2,1008.32,0,0,0,0,0.022621
2022/12/14 03:25:00.001,n,255,7.2,5.76,7.92,21.1,75.3,1008.32,0,0,0,0,0.027809
2022/12/14 03:26:00.006,n,265,7.92,6.84,10.08,21,75.7,1008.32,0,0,0,0,0.026093
2022/12/14 03:27:00.018,n,224,3.6,2.52,3.96,21,75.5,1008.32,0,0,0,0,0.022621
2022/12/14 03:28:00.002,n,259,6.48,5.4,7.2,21,75.8,1008.32,0,0,0,0,0.026093
2022/12/14 03:29:00.002,n,180,0.72,0,1.44,21,75.7,1008.32,0,0,0,0,0.022621
2022/12/14 03:30:00.001,n,148,4.32,1.8,7.2,20.9,75.6,1008.42,0,0,0,0,0.024376
2022/12/14 03:31:00.002,n,200,3.6,2.52,5.4,20.9,75.3,1008.42,0,0,0,0,0.024376
2022/12/14 03:32:00.009,n,163,3.6,2.16,4.32,20.9,75.4,1008.42,0,0,0,0,0.023499
2022/12/14 03:33:00.004,n,161,2.16,0.72,4.32,20.9,75.5,1008.42,0,0,0,0,0.020866
2022/12/14 03:34:00.002,n,219,1.44,0.36,3.96,20.9,75.6,1008.42,0,0,0,0,0.021744
2022/12/14 03:35:00.015,n,167,4.32,2.88,5.76,20.9,75.8,1008.42,0,0,0,0,0.023499
2022/12/14 03:36:00.013,n,192,1.44,0.72,2.52,20.9,75.6,1008.42,0,0,0,0,0.023499
2022/12/14 03:37:00.002,n,198,0.72,0.36,1.08,20.9,75.5,1008.42,0,0,0,0,0.024376
2022/12/14 03:38:00.002,n,194,2.88,1.8,5.76,20.9,75.5,1008.42,0,0,0,0,0.024376
2022/12/14 03:39:00.006,n,166,1.8,0.72,2.52,20.9,75.3,1008.42,0,0,0,0,0.021744
2022/12/14 03:40:00.004,n,190,2.88,1.8,3.6,20.9,75.4,1008.42,0,0,0,0,0.01915
2022/12/14 03:41:00.001,n,215,3.6,3.24,4.32,20.9,75.7,1008.42,0,0,0,0,0.022621
2022/12/14 03:42:00.002,n,145,2.52,1.08,3.96,20.9,75.5,1008.32,0,0,0,0,0.020027
2022/12/14 03:43:00.014,n,109,1.44,0.72,2.16,20.9,75.5,1008.32,0,0,0,0,0.021744
2022/12/14 03:44:00.016,n,161,3.6,3.24,7.92,20.9,75.4,1008.32,0,0,0,0,0.020027
2022/12/14 03:45:00.004,n,145,3.24,2.16,7.2,20.9,75.4,1008.32,0,0,0,0,0.026093
2022/12/14 03:46:00.001,n,132,3.96,1.44,4.68,20.9,75.4,1008.32,0,0,0,0,0.032196
2022/12/14 03:47:00.002,n,146,5.04,5.04,5.4,20.9,75.5,1008.32,0,0,0,0,0.027847
2022/12/14 03:48:00.002,n,152,5.76,5.76,5.76,20.9,75.5,1008.32,0,0,0,0,0.024376
2022/12/14 03:49:00.002,n,151,3.24,2.88,3.6,20.8,75.6,1008.32,0,0,0,0,0.023499
2022/12/14 03:50:00.006,n,175,2.16,2.16,2.16,20.8,75.7,1008.32,0,0,0,0,0.020027
2022/12/14 03:51:00.011,n,161,2.16,1.44,5.76,20.8,75.7,1008.32,0,0,0,0,0.01915
2022/12/14 03:52:00.012,n,167,2.16,2.16,2.88,20.8,75.8,1008.32,0,0,0,0,0.026093
2022/12/14 03:53:00.016,n,145,3.24,2.88,3.6,20.8,75.7,1008.32,0,0,0,0,0.025215
2022/12/14 03:54:00.003,n,185,1.8,0.72,5.76,20.8,75.8,1008.42,0,0,0,0,0.024376
2022/12/14 03:55:00.001,n,148,2.16,0.72,3.24,20.8,75.9,1008.42,0,0,0,0,0.018272
2022/12/14 03:56:00.002,n,128,1.8,1.08,2.52,20.8,75.8,1008.42,0,0,0,0,0.01915
2022/12/14 03:57:00.001,n,34,0.36,0,0.36,20.8,76,1008.42,0,0,0,0,0.019951
2022/12/14 03:58:00.002,n,139,3.24,1.08,6.84,20.8,75.9,1008.42,0,0,0,0,0.025177
2022/12/14 03:59:00.006,n,218,1.08,0,1.8,20.8,75.8,1008.42,0,0,0,0,0.024338
2022/12/14 04:00:00.008,n,131,0.72,0.36,1.08,20.8,75.7,1008.42,0,0,0,0,0.02346
2022/12/14 04:01:00.013,n,182,0.72,0,1.08,20.8,75.9,1008.42,0,0,0,0,0.020866
2022/12/14 04:02:00.016,n,6,1.08,0.36,4.68,20.9,75.9,1008.42,0,0,0,0,0.022583
2022/12/14 04:03:00.003,n,119,1.08,1.08,1.44,20.9,75.8,1008.42,0,0,0,0,0.019112
2022/12/14 04:04:00.001,n,215,2.16,1.44,2.16,20.9,75.7,1008.42,0,0,0,0,0.020866
2022/12/14 04:05:00.001,n,170,1.8,0.36,2.52,20.9,75.7,1008.52,0,0,0,0,0.016518
2022/12/14 04:06:00.001,n,220,2.16,0.36,6.84,20.9,75.7,1008.52,0,0,0,0,0.022621
2022/12/14 04:07:00.002,n,184,2.88,2.88,3.24,20.9,75.6,1008.52,0,0,0,0,0.028763
2022/12/14 04:08:00.003,n,199,3.24,1.8,5.04,20.9,75.8,1008.62,0,0,0,0,0.029602
2022/12/14 04:09:00.007,n,223,4.68,3.24,6.12,20.9,75.9,1008.62,0,0,0,0,0.030479
2022/12/14 04:10:00.002,n,242,5.04,2.88,6.12,21,76.4,1008.62,0,0,0,0,0.028763
2022/12/14 04:11:00.002,n,242,5.76,5.04,6.84,21,76.4,1008.62,0,0,0,0,0.028763
2022/12/14 04:12:00.003,n,226,3.96,2.52,4.32,21,76.2,1008.62,0,0,0,0,0.027847
2022/12/14 04:13:00.001,n,227,3.6,2.16,4.32,21,76.1,1008.62,0,0,0,0,0.028763
2022/12/14 04:14:00.002,n,218,3.96,2.52,4.68,20.9,76.2,1008.62,0,0,0,0,0.029602
2022/12/14 04:15:00.001,n,176,5.4,3.24,7.2,20.9,76.3,1008.72,0,0,0,0,0.033073
2022/12/14 04:16:00.005,n,257,5.76,4.68,6.84,20.9,76.8,1008.72,0,0,0,0,0.033073
2022/12/14 04:17:00.007,n,244,5.4,5.04,5.76,21,76.7,1008.72,0,0,0,0,0.036545
2022/12/14 04:18:00.010,n,247,7.56,7.2,8.28,21,76.7,1008.72,0,0,0,0,0.042648
2022/12/14 04:19:00.012,n,268,5.76,3.6,6.48,21,76.8,1008.72,0,0,0,0,0.053062
2022/12/14 04:20:00.014,n,237,5.76,2.88,7.56,21,77.3,1008.72,0,0,0,0,0.058289
2022/12/14 04:21:00.017,n,249,7.56,6.84,9.72,21,77.4,1008.72,0,0,0,0,0.067863
2022/12/14 04:22:00.004,n,248,7.2,6.12,9,21,77.4,1008.72,0,0,0,0,0.079155
2022/12/14 04:23:00.002,n,238,6.12,3.6,7.2,21,77.4,1008.72,0,0,0,0,0.092201
2022/12/14 04:24:00.002,n,271,7.92,5.76,10.08,21,77.9,1008.72,0,0,0,0,0.120888
2022/12/14 04:25:00.002,n,241,5.04,3.6,6.84,21,77.6,1008.72,0,0,0,0,0.154839
2022/12/14 04:26:00.001,n,214,3.6,3.24,3.96,21,77.8,1008.62,0,0,0,0,0.206985
2022/12/14 04:27:00.001,n,255,6.12,5.76,6.48,21,77.6,1008.62,0,0,0,0,0.262566
2022/12/14 04:28:00.002,n,237,2.16,1.44,2.88,21,78,1008.72,0,0,0,0,0.338135
2022/12/14 04:29:00.004,n,229,4.32,3.24,5.4,21,77.9,1008.62,0,0,0,0,0.4076
2022/12/14 04:30:00.008,n,221,4.32,2.52,6.12,20.9,77.9,1008.62,0,0,0,0,0.481377
2022/12/14 04:31:00.002,n,245,5.76,5.04,6.12,20.9,77.9,1008.62,0,0,0,0,0.548782
2022/12/14 04:32:00.003,n,179,4.68,3.24,6.12,20.9,78.3,1008.62,0,0,0,0,0.619316
2022/12/14 04:33:00.001,n,203,3.6,1.8,5.04,20.9,78,1008.72,0,0,0,0,0.709877
2022/12/14 04:34:00.005,n,192,4.32,2.88,7.56,20.9,78.1,1008.72,0,0,0,0,0.816002
2022/12/14 04:35:00.007,n,183,4.68,2.88,7.2,20.9,78.1,1008.62,0,0,0,0,0.935097
2022/12/14 04:36:00.005,n,237,3.96,2.52,4.68,20.9,78,1008.62,0,0,0,0,1.051483
2022/12/14 04:37:00.009,n,249,4.68,4.32,5.04,20.9,78.1,1008.62,0,0,0,0,1.170425
2022/12/14 04:38:00.011,n,247,5.4,4.68,6.12,20.8,78.2,1008.62,0,0,0,0,1.316147
2022/12/14 04:39:00.013,n,242,5.04,4.68,5.4,20.8,78.1,1008.62,0,0,0,0,1.516342
2022/12/14 04:40:00.002,n,249,4.68,3.96,5.76,20.8,78.3,1008.72,0,0,0,0,1.778603
2022/12/14 04:41:00.002,n,205,3.24,1.8,4.68,20.8,78.4,1008.82,0,0,0,0,2.078323
2022/12/14 04:42:00.004,n,258,7.2,6.48,8.28,20.8,78.8,1008.82,0,0,0,0,2.262001
2022/12/14 04:43:00.007,n,227,3.96,1.44,4.68,20.9,79.2,1008.92,0,0,0,0,2.637444
2022/12/14 04:44:00.002,n,260,6.12,3.96,9.36,20.9,78.6,1008.92,0,0,0,0,2.82917
2022/12/14 04:45:00.002,n,249,6.84,4.68,7.92,20.9,78.6,1008.92,0,0,0,0,3.070679
2022/12/14 04:46:00.005,n,244,5.4,2.88,5.76,20.9,78.5,1008.92,0,0,0,0,3.389435
2022/12/14 04:47:00.011,n,191,5.04,3.24,8.28,20.8,78.7,1008.92,0,0,0,0,3.709641
2022/12/14 04:48:00.016,n,244,3.24,2.88,4.68,20.8,78.6,1008.92,0,0,0,0,4.002571
2022/12/14 04:49:00.002,n,222,1.44,1.44,1.8,20.8,78.6,1008.92,0,0,0,0,4.262352
2022/12/14 04:50:00.001,n,259,6.12,4.68,9,20.8,78.6,1008.92,0,0,0,0,4.538918
2022/12/14 04:51:00.001,n,238,1.08,0.36,1.8,20.8,78.5,1008.92,0,0,0,0,4.870911
2022/12/14 04:52:00.001,n,232,4.68,4.32,5.4,20.8,78.3,1008.92,0,0,0,0,5.351906
2022/12/14 04:53:00.003,n,193,3.96,2.52,6.12,20.7,78.3,1008.82,0,0,0,0,5.949517
2022/12/14 04:54:00.007,n,179,4.32,2.52,7.2,20.7,78.4,1008.82,0,0,0,0,6.671028
2022/12/14 04:55:00.001,n,166,4.32,3.6,4.68,20.7,78.3,1008.72,0,0,0,0,7.428284